Regional Weather Roundup
Issued by NWS Upton, NY

Current Version | Previous Version | Graphics & Text | Print | Product List | Glossary Off
Versions: 1 2 3 4 5 6 7 8 9 10 11 12 13 14 15 16 17 18 19 20 21 22 23 24 25 26 27 28 29 30 31 32 33 34 35 36 37 38 39 40 41 42 43 44 45 46 47 48 49 50

000
ASUS41 KOKX 300508
RWROKX

REGIONAL WEATHER ROUNDUP
NATIONAL WEATHER SERVICE NEW YORK NY
100 AM EDT TUE JUN 30 2015

NOTE: "FAIR" INDICATES FEW OR NO CLOUDS BELOW 12,000 FEET WITH NO
SIGNIFICANT WEATHER AND/OR OBSTRUCTIONS TO VISIBILITY.

NYZ071-072-176-178-NJZ106-104-300600-
NEW YORK CITY METRO AREA


CITY           SKY/WX    TMP DP  RH WIND       PRES   REMARKS
CENTRAL PARK   CLEAR     72  56  57 VRB5      29.97S
LAGUARDIA APRT PTCLDY    72  56  57 S7        29.94S
KENNEDY INTL   PTCLDY    70  63  78 S9        29.96S
NEWARK/LIBERTY PTCLDY    68  59  73 SW5       29.95S
BRNX BOT. GARD   N/A     68  55  64 E2        29.95F
TETERBORO      MOCLDY    68  58  70 S3        29.93S
$$

NYZ177-179-078>081-300600-
LONG ISLAND NEW YORK

CITY           SKY/WX    TMP DP  RH WIND       PRES   REMARKS
FARMINGDALE    CLEAR     69  62  78 SW6       29.96S
ISLIP          CLEAR     67  61  81 S6        29.95R
SHIRLEY        CLEAR     66  62  87 S3        29.97S
WESTHAMPTON    CLEAR     58  58 100 CALM      29.98S FOG
MONTAUK POINT    N/A     68  61  78 SW6       29.97F
$$

NYZ052-065-067-300600-
HUDSON VALLEY

CITY           SKY/WX    TMP DP  RH WIND       PRES   REMARKS
WHITE PLAINS   MOCLDY    63  58  83 CALM      29.95S
NEWBURGH       MOCLDY    63  61  94 CALM      29.96S
MONTGOMERY     CLOUDY    62  60  93 CALM      29.95R
POUGHKEEPSIE   CLEAR     60  58  92 CALM      29.94R
ALBANY         CLOUDY    63  57  81 CALM      29.95F
$$

NJZ001-105-106-008-010-013-015-019>022-104-300600-
NEW JERSEY

CITY           SKY/WX    TMP DP  RH WIND       PRES   REMARKS
NEWARK/LIBERTY PTCLDY    68  59  73 SW5       29.95S
TETERBORO      MOCLDY    68  58  70 S3        29.93S
CALDWELL       CLEAR     63  58  83 CALM      29.96R
MORRISTOWN     CLEAR     61  57  88 CALM      29.95S
SOMERVILLE     CLEAR     61  58  90 NW3       29.94S
SUSSEX         CLOUDY    64  61  90 CALM      29.96R
ANDOVER          N/A     60  59  96 CALM      29.97R
TRENTON        CLEAR     67  58  72 S3        29.95S
MILLVILLE      CLEAR     61  60  97 CALM      29.97R
ATLANTIC CITY  CLEAR     68  61  78 S6        29.97S
WRIGHTSTOWN    CLEAR     63  61  93 S2        29.95R
TOMS RIVER     CLEAR     63  57  82 CALM      29.97S
BELMAR         CLEAR     64  57  77 SW3       29.97R
$$

PAZ047>061-062-071-300600-
EASTERN PENNSYLVANIA

CITY           SKY/WX    TMP DP  RH WIND       PRES   REMARKS
PHILADELPHIA   CLEAR     71  59  65 SW5       29.96R
ALLENTOWN      CLEAR     64  58  80 CALM      29.95S
SCRANTON       CLOUDY    67  59  75 E5        29.96S
$$

CTZ002-004>006-009-010-012-RIZ004-006-007-MAZ004-011-015-300600-
SOUTHERN NEW ENGLAND
 IN CT

CITY           SKY/WX    TMP DP  RH WIND       PRES   REMARKS
BRADLEY INTL   MOCLDY    61  59  93 CALM      29.95R
HARTFORD       PTCLDY    63  58  83 SE7       29.95S
DANBURY        PTCLDY    59  55  87 CALM      29.97S
WTRBRY/OXFORD  MOCLDY    61  54  77 CALM      29.98R
BRIDGEPORT     MOCLDY    68  62  81 W3        29.95S
MERIDEN        FAIR      60  57  89 CALM      29.95S
NEW HAVEN      MOCLDY    64  60  87 CALM      29.95S
CHESTER        FAIR      63  61  94 SW3       29.97S
GROTON         CLEAR     63  60  90 CALM      29.96S
WILLIMANTIC    MOCLDY    60  57  89 CALM      29.97R

 IN RI

CITY           SKY/WX    TMP DP  RH WIND       PRES   REMARKS
PROVIDENCE     CLEAR     64  60  87 W7        29.96R
BLOCK ISLAND   CLEAR     64  61  88 SW9       29.97S
WESTERLY       CLEAR     63  61  93 CALM      29.97S

 IN MA

CITY           SKY/WX    TMP DP  RH WIND       PRES   REMARKS
BOSTON         PTCLDY    66  60  81 SW12      29.95R
WORCESTER      CLEAR     61  56  83 W7        29.97S
WESTFIELD      MOCLDY    57  55  93 CALM      29.96R
PROVINCETOWN   CLEAR     61   5  11 SW8       29.96R
NANTUCKET      PTCLDY    63  60  90 SW8       29.97S
$$

ANZ330-335-338-340-345-350-353-355-300600-
COASTAL MARINE OBSERVATIONS


STATION/POSITION TIME  SKY/WX   TEMP    WIND        PRES    VSBY  WAVE
                                AIR SEA DIR/SP/G                  HT/PER
                 (UTC)          (F)     (DEG/KT/KT) (MB)    (MI)  (FT/S)
NY HARB ENTRANCE 0450            69 68  210/ 10/ 12 1014.0          3/ 7
4S FIRE IS       0403               66                N/A           3/ 8
20S FIRE ISLAND  0450            67 65  220/  8/ 10 1014.4          3/ 8
GREAT SOUTH BAY  0430            70 72  250/ 12/ 14   N/A
23SW MTP         0450            66 63  240/ 10/ 12 1014.4          4/ 8
HUDSON CANYON    NOT AVBL
KINGS POINT      0400            70 64  180/  4/  6 1013.4
CENTRAL LI SOUND NOT AVBL
EASTERN LI SOUND 0400            65     240/  8/ 10   N/A
ROBBINS REEF     0400            71     190/ 11/ 11 1013.0
$$


>>>>>>>>>>>>>>>>>>>>>>>>>>>> KEY <<<<<<<<<<<<<<<<<<<<<<<<<<<
>                                                          <
>     SKY/WX - SKY CONDITION/PRESENT WEATHER               <
>     TMP    - TEMPERATURE IN FAHRENHEIT                   <
>     DP     - DEWPOINT IN FAHRENHEIT                      <
>     RH     - RELATIVE HUMIDITY IN PERCENT                <
>     WIND   - DIRECTION AND SPEED IN MPH                  <
>     PRES   - MEAN SEA LEVEL PRESSURE IN INCHES OF HG     <
>     WCI    - WIND CHILL INDEX                            <
>     VSB    - VISIBILITY IN MILES                         <
>     HX     - HEAT INDEX                                  <
>     TC     - TEMPERATURE IN CELSIUS                      <
>     VRB    - VARIABLE WIND DIRECTION                     <
>                                                          <
>>>>>>>>>>>>>>>>>>>>>>>>>>>> KEY <<<<<<<<<<<<<<<<<<<<<<<<<<<




USA.gov is the U.S. government's official web portal to all federal, state and local government web resources and services.